Weather History for Oxford, CT

Change the Weather History Date:

Thursday, May 3, 2012

  Actual Average Record
Temperature  
Mean Temperature 50 °F -  
Max Temperature 51 °F 63 °F 87 °F (2001)
Min Temperature 48 °F 42 °F 33 °F (2005)
Degree Days  
Heating Degree Days 16    
Moisture  
Dew Point 46 °F    
Average Humidity 88    
Maximum Humidity 93    
Minimum Humidity 82    
Precipitation  
Precipitation 0.01 in - - ()
Sea Level Pressure  
Sea Level Pressure 30.16 in    
Wind  
Wind Speed 6 mph (South)    
Max Wind Speed 9 mph    
Max Gust Speed -    
Visibility 4 miles    
Events Fog    
Averages and records for this station are not official NWS values.
T = Trace of Precipitation, MM = Missing Value Source: NWS Daily Summary

Daily Weather History Graph

Daily Weather History Graph

Search for Another Location

Airport:

Trip Planner

Search our weather history database for the weather conditions in past years. The results will help you decide how hot, cold, wet, or windy it might be!

Date:

Astronomy

May. 03, 2012 Rise Set
Actual Time 5:46 AM EDT 7:52 PM EDT
Civil Twilight 5:16 AM EDT 8:23 PM EDT
Nautical Twilight 4:38 AM EDT 9:00 PM EDT
Astronomical Twilight 3:58 AM EDT 9:41 PM EDT
Moon 5:12 PM EDT (5/3) 3:50 AM EDT (5/3)
Length of Visible Light 15h 07m
Length of Day
14h 06m
Waxing Gibbous, 91% of the Moon is Illuminated
May 3
Waxing Gibbous
May 5
Full
May 12
Last Quarter
May 20
New
May 28
First Quarter

Hourly Weather History & Observations

Time (EDT) Temp. Dew Point Humidity Pressure Visibility Wind Dir Wind Speed Gust Speed Precip Events Conditions
12:15 AM 48.2 °F 44.6 °F 87% 30.17 in 10.0 mi SSE 6.9 mph - N/A   Overcast
12:35 AM 48.2 °F 44.6 °F 87% 30.17 in 10.0 mi SSE 8.1 mph - N/A   Overcast
12:55 AM 48.2 °F 44.6 °F 87% 30.17 in 10.0 mi SSE 6.9 mph - N/A   Overcast
1:15 AM 48.2 °F 44.6 °F 87% 30.15 in 10.0 mi SSE 8.1 mph - N/A   Overcast
1:35 AM 48.2 °F 44.6 °F 87% 30.15 in 10.0 mi SSE 8.1 mph - N/A   Overcast
1:55 AM 48.2 °F 44.6 °F 87% 30.16 in 10.0 mi South 6.9 mph - N/A   Overcast
2:15 AM 48.2 °F 44.6 °F 87% 30.19 in 10.0 mi SW 4.6 mph - N/A   Overcast
2:55 AM 48.2 °F 44.6 °F 87% 30.15 in 7.0 mi SSE 8.1 mph - 0.01 in   Overcast
3:15 AM 48.2 °F 44.6 °F 87% 30.15 in 9.0 mi SSE 9.2 mph - N/A   Overcast
4:35 AM 48.2 °F 44.6 °F 87% 30.17 in 10.0 mi South 4.6 mph - N/A   Overcast
4:55 AM 48.2 °F 44.6 °F 87% 30.16 in 10.0 mi South 5.8 mph - N/A   Overcast
5:35 AM 48.2 °F 44.6 °F 87% 30.15 in 3.0 mi South 6.9 mph - N/A   Overcast
5:45 AM 48.2 °F 44.6 °F 87% 30.15 in 0.5 mi South 8.1 mph - N/A Fog Light Drizzle
5:55 AM 48.2 °F 44.6 °F 87% 30.15 in 3.0 mi South 6.9 mph - N/A   Overcast
6:45 AM 48.2 °F 44.6 °F 87% 30.17 in 0.5 mi South 6.9 mph - N/A Fog Fog
7:17 AM 48.2 °F 44.6 °F 87% 30.17 in 1.0 mi South 6.9 mph - N/A   Overcast
7:45 AM 48.2 °F 44.6 °F 87% 30.18 in 1.0 mi South 6.9 mph - N/A   Overcast
8:50 AM 48.2 °F 46.4 °F 93% 30.18 in 1.0 mi SW 4.6 mph - N/A   Overcast
9:45 AM 48.2 °F 46.4 °F 93% 30.18 in 1.0 mi SSW 5.8 mph - N/A   Overcast
10:45 AM 51.8 °F 46.4 °F 82% 30.17 in 2.0 mi South 4.6 mph - N/A   Overcast
11:50 AM 51.8 °F 48.2 °F 88% 30.18 in 0.8 mi SSE 5.8 mph - N/A   Mist
12:45 PM 51.8 °F 46.4 °F 82% 30.16 in 0.8 mi South 6.9 mph - N/A   Mist
1:45 PM 51.8 °F 48.2 °F 88% 30.17 in 1.0 mi South 6.9 mph - N/A   Mist
2:45 PM 51.8 °F 48.2 °F 88% 30.16 in 2.0 mi South 6.9 mph - N/A   Overcast
3:45 PM 51.8 °F 48.2 °F 88% 30.14 in 2.0 mi SSE 5.8 mph - N/A   Overcast
4:45 PM 51.8 °F 48.2 °F 88% 30.15 in 2.0 mi South 5.8 mph - N/A   Overcast
5:55 PM 51.8 °F 46.4 °F 82% 30.13 in 1.0 mi SSE 5.8 mph - N/A   Overcast
6:55 PM 50.0 °F 46.4 °F 87% 30.13 in 0.5 mi South 5.8 mph - N/A Fog Fog
7:55 PM 50.0 °F 46.4 °F 87% 30.15 in 1.0 mi South 4.6 mph - N/A   Overcast
8:45 PM 48.2 °F 46.4 °F 93% 30.14 in 1.0 mi South 4.6 mph - N/A   Overcast
9:15 PM 48.2 °F 46.4 °F 93% 30.13 in 0.5 mi Calm Calm - N/A   Overcast
9:35 PM 48.2 °F 46.4 °F 93% 30.14 in 2.5 mi SSE 3.5 mph - N/A   Overcast
9:55 PM 48.2 °F 46.4 °F 93% 30.14 in 0.8 mi SSE 3.5 mph - N/A   Overcast
10:15 PM 48.2 °F 46.4 °F 93% 30.15 in 0.2 mi SSE 4.6 mph - N/A   Overcast
10:55 PM 48.2 °F 46.4 °F 93% 30.14 in 0.2 mi South 4.6 mph - N/A   Overcast
11:15 PM 48.2 °F 46.4 °F 93% 30.14 in 0.2 mi South 3.5 mph - N/A   Overcast
11:35 PM 48.2 °F 46.4 °F 93% 30.13 in 0.2 mi South 3.5 mph - N/A   Overcast